Regional Weather Roundup
Issued by NWS

Home | Current Version | Previous Version | Graphics & Text | Print | Product List | Glossary On
Versions: 1 2 3 4 5 6 7 8 9 10 11 12 13 14 15 16 17 18 19 20 21 22 23 24 25 26 27 28 29 30 31 32 33 34 35 36 37 38 39 40 41 42 43 44 45 46 47 48 49 50
000
ASUS43 KLMK 240002
RWRKY
KENTUCKY REGIONAL WEATHER ROUNDUP
NATIONAL WEATHER SERVICE LOUISVILLE KY
800 PM EDT THU MAR 23 2017

NOTE "FAIR" INDICATES FEW OR NO CLOUDS BELOW 12,000 FEET
WITH NO SIGNIFICANT WEATHER AND/OR OBSTRUCTIONS TO VISIBILITY.

KYZ001>023-026-027-061>063-070>075-240100-
WESTERN AND SOUTH CENTRAL KENTUCKY

CITY           SKY/WX    TMP DP  RH WIND       PRES   REMARKS
PADUCAH        CLEAR     57  43  59 E9        30.14S
HENDERSON      CLEAR     52  37  58 SE6       30.18S
OWENSBORO      CLEAR     55  42  61 SE5       30.20F
HOPKINSVILLE   NOT AVBL
BOWLING GREEN  PTCLDY    57  44  62 E8        30.22F
GLASGOW        NOT AVBL
$$

KYZ024-025-028>034-038-045-046-053-240100-
NORTH CENTRAL KENTUCKY

CITY           SKY/WX    TMP DP  RH WIND       PRES   REMARKS
LOUISVILLE/SDF MOCLDY    62  32  32 S7        30.24R
LOUISVILLE/LOU CLOUDY    62  34  35 S6        30.25R
FORT KNOX      CLOUDY    59  37  44 SE6       30.22F
$$

KYZ035>037-039>044-047>052-055>060-089>105-240100-
NORTHEAST KENTUCKY

CITY           SKY/WX    TMP DP  RH WIND       PRES   REMARKS
LEXINGTON      CLOUDY    60  31  33 SW3       30.26S
COVINGTON      CLOUDY    56  30  37 S9        30.25S
FRANKFORT      CLOUDY    59  32  36 CALM      30.24S
$$

KYZ054-064>069-076>088-106>120-240100-
SOUTHEAST KENTUCKY

CITY           SKY/WX    TMP DP  RH WIND       PRES   REMARKS
JACKSON        CLOUDY    63  26  24 CALM      30.27S
LONDON         MOCLDY    62  32  32 S9        30.28S
SOMERSET       CLOUDY    61  32  33 S6        30.28S
MIDDLESBORO    CLOUDY    61  37  41 CALM      30.31S
MONTICELLO     CLOUDY    62  39  42 E6        30.29R
$$




USA.gov is the U.S. government's official web portal to all federal, state and local government web resources and services.